Flag for Netherlands Weather past 2 weeks in Utrecht, Netherlands

Now
75 °F

Passing clouds.


Feels Like: 77 °F
Forecast: 63 / 76 °F
Wind: 10 mph from Northeast

Location: Amsterdam Schiphol Airport

Current Time: Aug 30, 2015 at 4:16:21 PM

Latest Report: Aug 30, 2015 at 3:55 PM


Visibility: N/A

Pressure: 30.01 "Hg

Humidity: 69%

Dew point: 64 °F

Location of UtrechtLocation

Historic Weather in Utrecht — Graph

°F

Utrecht temperature yesterday

Maximum temperature yesterday: 73 °F (at 3:25 PM)
Minimum temperature yesterday: 52 °F (at 3:25 AM)
Average temperature yesterday: 63 °F

Past Weeks' High & Low Weather Summary

 TemperatureHumidityPressure
High79 °F (Aug 22, 1:55 PM)100% (Aug 17, 4:55 AM)30.21 "Hg (Aug 17, 4:55 AM)
Low52 °F (Aug 29, 3:25 AM)42% (Aug 22, 2:55 PM)29.45 "Hg (Aug 24, 4:25 PM)
Average64 °F79%29.93 "Hg
* Reported Aug 15 2:25 PM — Aug 30 2:55 PM, Utrecht, Weather by CustomWeather, © 2015

Note: Actual official high and low records may vary slightly from our data, if they occured in-between our weather recording intervals... More about our weather records

Advertising

Utrecht weather history for previous 24 hours

 ConditionsComfort  
Time TempWeatherWind HumidityBarometerVisibility
2:55 PM
Sun, Aug 30
73 °FPassing clouds.13 mph74%30.01 "HgN/A
2:25 PM73 °FPassing clouds.13 mph74%30.01 "HgN/A
1:55 PM72 °FPassing clouds.12 mph73%30.01 "HgN/A
1:25 PM72 °FPassing clouds.10 mph73%30.01 "HgN/A
12:55 PM72 °FPassing clouds.10 mph73%30.01 "HgN/A
12:25 PM70 °FScattered clouds.12 mph78%30.04 "HgN/A
11:55 AM68 °FPartly sunny.12 mph78%30.04 "HgN/A
11:25 AM70 °FScattered clouds.10 mph73%30.04 "HgN/A
10:55 AM68 °FPassing clouds.10 mph73%30.04 "HgN/A
10:25 AM66 °FPassing clouds.8 mph78%30.04 "HgN/A
9:55 AM64 °FSunny.8 mph78%30.04 "Hg10 mi
9:25 AM63 °FSunny.8 mph83%30.04 "Hg10 mi
8:55 AM63 °FPassing clouds.10 mph83%30.04 "HgN/A
8:25 AM63 °FLight rain. Passing clouds.8 mph77%30.04 "HgN/A
7:55 AM61 °FPassing clouds.8 mph83%30.04 "HgN/A
7:25 AM61 °FPassing clouds.7 mph83%30.04 "HgN/A
6:55 AM63 °FClear.7 mph77%30.07 "Hg10 mi
5:55 AM61 °FClear.12 mph83%30.04 "Hg10 mi
5:25 AM63 °FClear.10 mph77%30.07 "Hg10 mi
4:55 AM61 °FClear.9 mph83%30.07 "Hg10 mi
4:25 AM63 °FPassing clouds.8 mph77%30.07 "HgN/A
3:55 AM61 °FPassing clouds.8 mph83%30.07 "HgN/A
3:25 AM61 °FClear.10 mph83%30.07 "Hg10 mi
2:55 AM63 °FClear.9 mph77%30.09 "Hg10 mi
2:25 AM63 °FPassing clouds.9 mph77%30.09 "HgN/A
1:55 AM61 °FClear.8 mph83%30.09 "Hg10 mi
1:25 AM61 °FClear.7 mph83%30.09 "Hg10 mi
12:55 AM63 °FPassing clouds.6 mph88%30.12 "HgN/A
12:25 AM63 °FLight rain. Passing clouds.6 mph88%30.12 "Hg5 mi
11:55 PM
Sat, Aug 29
63 °FPassing clouds.7 mph88%30.12 "HgN/A
10:55 PM63 °FClear.8 mph77%30.12 "Hg10 mi
10:25 PM63 °FClear.7 mph73%30.12 "Hg10 mi
9:55 PM63 °FClear.7 mph68%30.12 "Hg10 mi
9:25 PM63 °FSunny.6 mph73%30.12 "Hg10 mi
8:55 PM63 °FPassing clouds.6 mph68%30.12 "HgN/A
8:25 PM64 °FSunny.6 mph64%30.09 "Hg10 mi
7:55 PM66 °FPassing clouds.6 mph60%30.12 "HgN/A
7:25 PM68 °FSunny.8 mph56%30.12 "Hg10 mi
6:55 PM68 °FSunny.7 mph60%30.12 "Hg10 mi
6:25 PM70 °FPassing clouds.6 mph53%30.12 "HgN/A
5:55 PM73 °FPassing clouds.3 mph47%30.12 "HgN/A
5:25 PM72 °FPassing clouds.5 mph50%30.12 "HgN/A
4:55 PM72 °FPassing clouds.3 mph47%30.12 "HgN/A
4:25 PM72 °FPassing clouds.5 mph50%30.15 "HgN/A
Weather by CustomWeather, © 2015

See weather overviewHow to use our weather pages